Time,TemperatureF,DewpointF,PressureIn,WindDirection,WindDirectionDegrees,WindSpeedMPH,WindSpeedGustMPH,Humidity,HourlyPrecipIn,Conditions,Clouds,dailyrainin,SolarRadiationWatts/m^2,SoftwareType,DateUTC
2013-02-17 00:21:00,64.0,57.0,-100.00,ESE,103,9.0,33.0,79,0.00,,,1.15,0.000000,,2013-02-17 10:21:00,
2013-02-17 00:31:00,64.0,57.0,-100.00,ESE,103,9.0,33.0,79,0.00,,,1.15,0.000000,,2013-02-17 10:31:00,
2013-02-17 00:41:00,64.0,57.0,-100.00,ESE,103,9.0,33.0,79,0.00,,,1.15,0.000000,,2013-02-17 10:41:00,
2013-02-17 00:51:00,64.0,57.0,-100.00,ESE,103,9.0,33.0,79,0.00,,,1.15,0.000000,,2013-02-17 10:51:00,
2013-02-17 01:32:00,67.0,58.0,-100.00,East,94,8.0,28.0,74,0.00,,,0.88,0.000000,,2013-02-17 11:32:00,
2013-02-17 01:41:00,67.0,58.0,-100.00,East,94,8.0,28.0,74,0.00,,,0.88,0.000000,,2013-02-17 11:41:00,
2013-02-17 01:52:00,67.0,58.0,-100.00,East,94,8.0,28.0,74,0.00,,,0.88,0.000000,,2013-02-17 11:52:00,
2013-02-17 02:22:00,67.0,58.0,-100.00,NNW,342,3.0,24.0,73,0.00,,,0.51,0.000000,,2013-02-17 12:22:00,
2013-02-17 02:32:00,67.0,58.0,-100.00,NNW,342,3.0,24.0,73,0.00,,,0.51,0.000000,,2013-02-17 12:32:00,
2013-02-17 02:42:00,67.0,58.0,-100.00,NNW,342,3.0,24.0,73,0.00,,,0.51,0.000000,,2013-02-17 12:42:00,
2013-02-17 02:52:00,67.0,58.0,-100.00,NNW,342,3.0,24.0,73,0.00,,,0.51,0.000000,,2013-02-17 12:52:00,
2013-02-17 03:21:00,66.0,58.0,-100.00,ENE,75,3.0,24.0,76,0.00,,,0.32,0.000000,,2013-02-17 13:21:00,
2013-02-17 03:32:00,66.0,58.0,-100.00,ENE,75,3.0,24.0,76,0.00,,,0.32,0.000000,,2013-02-17 13:32:00,
2013-02-17 03:41:00,66.0,58.0,-100.00,ENE,75,3.0,24.0,76,0.00,,,0.32,0.000000,,2013-02-17 13:41:00,
2013-02-17 03:51:00,66.0,58.0,-100.00,ENE,75,3.0,24.0,76,0.00,,,0.32,0.000000,,2013-02-17 13:51:00,
2013-02-17 04:21:00,66.0,59.0,-100.00,North,7,4.0,21.0,77,0.00,,,0.27,0.000000,,2013-02-17 14:21:00,
2013-02-17 04:32:00,66.0,59.0,-100.00,North,7,4.0,21.0,77,0.00,,,0.27,0.000000,,2013-02-17 14:32:00,
2013-02-17 04:42:00,66.0,59.0,-100.00,North,7,4.0,21.0,77,0.00,,,0.27,0.000000,,2013-02-17 14:42:00,
2013-02-17 04:52:00,66.0,59.0,-100.00,North,7,4.0,21.0,77,0.00,,,0.27,0.000000,,2013-02-17 14:52:00,
2013-02-17 05:21:00,67.0,59.0,-100.00,ESE,104,7.0,22.0,75,0.00,,,0.20,0.000000,,2013-02-17 15:21:00,
2013-02-17 05:31:00,67.0,59.0,-100.00,ESE,104,7.0,22.0,75,0.00,,,0.20,0.000000,,2013-02-17 15:31:00,
2013-02-17 05:41:00,67.0,59.0,-100.00,ESE,104,7.0,22.0,75,0.00,,,0.20,0.000000,,2013-02-17 15:41:00,
2013-02-17 05:52:00,67.0,59.0,-100.00,ESE,104,7.0,22.0,75,0.00,,,0.20,0.000000,,2013-02-17 15:52:00,
2013-02-17 06:21:00,67.0,59.0,-100.00,SSE,154,5.0,22.0,76,0.00,,,0.12,0.000000,,2013-02-17 16:21:00,
2013-02-17 06:31:00,67.0,59.0,-100.00,SSE,154,5.0,22.0,76,0.00,,,0.12,0.000000,,2013-02-17 16:31:00,
2013-02-17 06:41:00,67.0,59.0,-100.00,SSE,154,5.0,22.0,76,0.00,,,0.12,0.000000,,2013-02-17 16:41:00,
2013-02-17 06:51:00,67.0,59.0,-100.00,SSE,154,5.0,22.0,76,0.00,,,0.12,0.000000,,2013-02-17 16:51:00,
2013-02-17 07:21:00,65.0,61.0,-100.00,East,86,7.0,26.0,87,0.00,,,0.06,0.000000,,2013-02-17 17:21:00,
2013-02-17 07:32:00,65.0,61.0,-100.00,East,86,7.0,26.0,87,0.00,,,0.06,0.000000,,2013-02-17 17:32:00,
2013-02-17 07:41:00,65.0,61.0,-100.00,East,86,7.0,26.0,87,0.00,,,0.06,0.000000,,2013-02-17 17:41:00,
2013-02-17 07:52:00,65.0,61.0,-100.00,East,86,7.0,26.0,87,0.00,,,0.06,0.000000,,2013-02-17 17:52:00,
2013-02-17 08:21:00,62.0,59.0,-100.00,SW,219,4.0,22.0,91,0.04,,,0.04,23.000000,,2013-02-17 18:21:00,
2013-02-17 08:33:00,62.0,59.0,-100.00,SW,219,4.0,22.0,91,0.04,,,0.04,23.000000,,2013-02-17 18:33:00,
2013-02-17 08:42:00,62.0,59.0,-100.00,SW,219,4.0,22.0,91,0.04,,,0.04,23.000000,,2013-02-17 18:42:00,
2013-02-17 08:52:00,62.0,59.0,-100.00,SW,219,4.0,22.0,91,0.04,,,0.04,23.000000,,2013-02-17 18:52:00,
2013-02-17 09:21:00,66.0,60.0,-100.00,West,268,5.0,18.0,82,0.01,,,0.05,75.000000,,2013-02-17 19:21:00,
2013-02-17 09:32:00,66.0,60.0,-100.00,West,268,5.0,18.0,82,0.01,,,0.05,75.000000,,2013-02-17 19:32:00,
2013-02-17 09:41:00,66.0,60.0,-100.00,West,268,5.0,18.0,82,0.01,,,0.05,75.000000,,2013-02-17 19:41:00,
2013-02-17 09:51:00,66.0,60.0,-100.00,West,268,5.0,18.0,82,0.01,,,0.05,75.000000,,2013-02-17 19:51:00,
2013-02-17 10:21:00,67.0,61.0,-100.00,ENE,63,6.0,23.0,80,0.00,,,0.05,103.000000,,2013-02-17 20:21:00,
2013-02-17 10:32:00,67.0,61.0,-100.00,ENE,63,6.0,23.0,80,0.00,,,0.05,103.000000,,2013-02-17 20:32:00,
2013-02-17 10:42:00,67.0,61.0,-100.00,ENE,63,6.0,23.0,80,0.00,,,0.05,103.000000,,2013-02-17 20:42:00,
2013-02-17 10:52:00,67.0,61.0,-100.00,ENE,63,6.0,23.0,80,0.00,,,0.05,103.000000,,2013-02-17 20:52:00,
2013-02-17 11:21:00,67.0,57.0,-100.00,East,79,9.0,32.0,71,0.00,,,0.05,172.000000,,2013-02-17 21:21:00,
2013-02-17 11:31:00,67.0,57.0,-100.00,East,79,9.0,32.0,71,0.00,,,0.05,172.000000,,2013-02-17 21:31:00,
2013-02-17 11:41:00,67.0,57.0,-100.00,East,79,9.0,32.0,71,0.00,,,0.05,172.000000,,2013-02-17 21:41:00,
2013-02-17 11:52:00,67.0,57.0,-100.00,East,79,9.0,32.0,71,0.00,,,0.05,172.000000,,2013-02-17 21:52:00,
2013-02-17 12:21:00,69.0,59.0,-100.00,East,85,9.0,29.0,71,0.00,,,0.05,269.000000,,2013-02-17 22:21:00,
2013-02-17 12:32:00,69.0,59.0,-100.00,East,85,9.0,29.0,71,0.00,,,0.05,269.000000,,2013-02-17 22:32:00,
2013-02-17 12:41:00,69.0,59.0,-100.00,East,85,9.0,29.0,71,0.00,,,0.05,269.000000,,2013-02-17 22:41:00,
2013-02-17 12:52:00,69.0,59.0,-100.00,East,85,9.0,29.0,71,0.00,,,0.05,269.000000,,2013-02-17 22:52:00,
2013-02-17 13:21:00,68.0,56.0,-100.00,ENE,62,9.0,29.0,66,0.00,,,0.05,248.000000,,2013-02-17 23:21:00,
2013-02-17 13:31:00,68.0,56.0,-100.00,ENE,62,9.0,29.0,66,0.00,,,0.05,248.000000,,2013-02-17 23:31:00,
2013-02-17 13:41:00,68.0,56.0,-100.00,ENE,62,9.0,29.0,66,0.00,,,0.05,248.000000,,2013-02-17 23:41:00,
2013-02-17 13:52:00,68.0,56.0,-100.00,ENE,62,9.0,29.0,66,0.00,,,0.05,248.000000,,2013-02-17 23:52:00,
2013-02-17 14:22:00,68.0,57.0,-100.00,East,83,9.0,29.0,69,0.00,,,0.05,237.000000,,2013-02-18 00:22:00,
2013-02-17 14:31:00,68.0,57.0,-100.00,East,83,9.0,29.0,69,0.00,,,0.05,237.000000,,2013-02-18 00:31:00,
2013-02-17 14:41:00,68.0,57.0,-100.00,East,83,9.0,29.0,69,0.00,,,0.05,237.000000,,2013-02-18 00:41:00,
2013-02-17 14:52:00,68.0,57.0,-100.00,East,83,9.0,29.0,69,0.00,,,0.05,237.000000,,2013-02-18 00:52:00,
2013-02-17 15:21:00,69.0,58.0,-100.00,ENE,75,10.0,27.0,68,0.00,,,0.05,312.000000,,2013-02-18 01:21:00,
2013-02-17 15:31:00,69.0,58.0,-100.00,ENE,75,10.0,27.0,68,0.00,,,0.05,312.000000,,2013-02-18 01:31:00,
2013-02-17 15:41:00,69.0,58.0,-100.00,ENE,75,10.0,27.0,68,0.00,,,0.05,312.000000,,2013-02-18 01:41:00,
2013-02-17 15:51:00,69.0,58.0,-100.00,ENE,75,10.0,27.0,68,0.00,,,0.05,312.000000,,2013-02-18 01:51:00,
2013-02-17 16:21:00,72.0,59.0,-100.00,ENE,78,12.0,29.0,64,0.00,,,0.05,502.000000,,2013-02-18 02:21:00,
2013-02-17 16:32:00,72.0,59.0,-100.00,ENE,78,12.0,29.0,64,0.00,,,0.05,502.000000,,2013-02-18 02:32:00,
2013-02-17 16:41:00,72.0,59.0,-100.00,ENE,78,12.0,29.0,64,0.00,,,0.05,502.000000,,2013-02-18 02:41:00,
2013-02-17 16:52:00,72.0,59.0,-100.00,ENE,78,12.0,29.0,64,0.00,,,0.05,502.000000,,2013-02-18 02:52:00,
2013-02-17 17:21:00,69.0,56.0,-100.00,ENE,71,9.0,35.0,63,0.00,,,0.05,454.000000,,2013-02-18 03:21:00,
2013-02-17 17:31:00,69.0,56.0,-100.00,ENE,71,9.0,35.0,63,0.00,,,0.05,454.000000,,2013-02-18 03:31:00,
2013-02-17 17:42:00,69.0,56.0,-100.00,ENE,71,9.0,35.0,63,0.00,,,0.05,454.000000,,2013-02-18 03:42:00,
2013-02-17 17:51:00,69.0,56.0,-100.00,ENE,71,9.0,35.0,63,0.00,,,0.05,454.000000,,2013-02-18 03:51:00,
2013-02-17 18:21:00,68.0,56.0,-100.00,ENE,70,10.0,23.0,66,0.00,,,0.05,232.000000,,2013-02-18 04:21:00,
2013-02-17 18:32:00,68.0,56.0,-100.00,ENE,70,10.0,23.0,66,0.00,,,0.05,232.000000,,2013-02-18 04:32:00,
2013-02-17 18:41:00,68.0,56.0,-100.00,ENE,70,10.0,23.0,66,0.00,,,0.05,232.000000,,2013-02-18 04:41:00,
2013-02-17 18:51:00,68.0,56.0,-100.00,ENE,70,10.0,23.0,66,0.00,,,0.05,232.000000,,2013-02-18 04:51:00,
2013-02-17 19:21:00,66.0,57.0,-100.00,ENE,70,8.0,27.0,74,0.00,,,0.05,23.000000,,2013-02-18 05:21:00,
2013-02-17 19:31:00,66.0,57.0,-100.00,ENE,70,8.0,27.0,74,0.00,,,0.05,23.000000,,2013-02-18 05:31:00,
2013-02-17 19:41:00,66.0,57.0,-100.00,ENE,70,8.0,27.0,74,0.00,,,0.05,23.000000,,2013-02-18 05:41:00,
2013-02-17 19:51:00,66.0,57.0,-100.00,ENE,70,8.0,27.0,74,0.00,,,0.05,23.000000,,2013-02-18 05:51:00,
2013-02-17 20:21:00,67.0,57.0,-100.00,East,80,9.0,34.0,70,0.00,,,0.05,0.000000,,2013-02-18 06:21:00,
2013-02-17 20:31:00,67.0,57.0,-100.00,East,80,9.0,34.0,70,0.00,,,0.05,0.000000,,2013-02-18 06:31:00,
2013-02-17 20:41:00,67.0,57.0,-100.00,East,80,9.0,34.0,70,0.00,,,0.05,0.000000,,2013-02-18 06:41:00,
2013-02-17 20:51:00,67.0,57.0,-100.00,East,80,9.0,34.0,70,0.00,,,0.05,0.000000,,2013-02-18 06:51:00,
2013-02-17 21:21:00,66.0,56.0,-100.00,ENE,67,12.0,32.0,70,0.00,,,0.05,0.000000,,2013-02-18 07:21:00,
2013-02-17 21:31:00,66.0,56.0,-100.00,ENE,67,12.0,32.0,70,0.00,,,0.05,0.000000,,2013-02-18 07:31:00,
2013-02-17 21:42:00,66.0,56.0,-100.00,ENE,67,12.0,32.0,70,0.00,,,0.05,0.000000,,2013-02-18 07:42:00,
2013-02-17 21:51:00,66.0,56.0,-100.00,ENE,67,12.0,32.0,70,0.00,,,0.05,0.000000,,2013-02-18 07:51:00,
2013-02-17 22:21:00,66.0,57.0,-100.00,ENE,72,9.0,27.0,73,0.00,,,0.05,0.000000,,2013-02-18 08:21:00,
2013-02-17 22:32:00,66.0,57.0,-100.00,ENE,72,9.0,27.0,73,0.00,,,0.05,0.000000,,2013-02-18 08:32:00,
2013-02-17 22:42:00,66.0,57.0,-100.00,ENE,72,9.0,27.0,73,0.00,,,0.05,0.000000,,2013-02-18 08:42:00,
2013-02-17 22:52:00,66.0,57.0,-100.00,ENE,72,9.0,27.0,73,0.00,,,0.05,0.000000,,2013-02-18 08:52:00,
2013-02-17 23:22:00,66.0,59.0,-100.00,ENE,77,6.0,30.0,77,0.00,,,0.05,0.000000,,2013-02-18 09:22:00,
2013-02-17 23:31:00,66.0,59.0,-100.00,ENE,77,6.0,30.0,77,0.00,,,0.05,0.000000,,2013-02-18 09:31:00,
2013-02-17 23:41:00,66.0,59.0,-100.00,ENE,77,6.0,30.0,77,0.00,,,0.05,0.000000,,2013-02-18 09:41:00,
2013-02-17 23:51:00,66.0,59.0,-100.00,ENE,77,6.0,30.0,77,0.00,,,0.05,0.000000,,2013-02-18 09:51:00,